This is the latest recevied weather packets stored in our database for station/object W3JGB. If no packets are shown the sender has not sent any weather packets the latest 10 day(s).
| Time | Temp. | Humidity | Pressure | Rain* | Wind** | Luminosity | Snow |
|---|---|---|---|---|---|---|---|
| 1778130710 | 10° C | 71% | 1011.8 hPa | 0 mm | - | 0 W/m² | - |
| 1778130407 | 10° C | 75% | 1011.9 hPa | 0 mm | - | 0 W/m² | - |
| 1778130104 | 10.56° C | 73% | 1011.9 hPa | 0 mm | - | 0 W/m² | - |
| 1778129801 | 10.56° C | 73% | 1011.6 hPa | 0 mm | - | 0 W/m² | - |
| 1778129497 | 10.56° C | 75% | 1011.6 hPa | 0 mm | - | 0 W/m² | - |
| 1778129194 | 10.56° C | 75% | 1011.9 hPa | 0 mm | - | 0 W/m² | - |
| 1778128891 | 10.56° C | 76% | 1011.6 hPa | 0 mm | - | 0 W/m² | - |
| 1778128587 | 10.56° C | 86% | 1011.7 hPa | 0 mm | - | 0 W/m² | - |
| 1778128285 | 10.56° C | 85% | 1011.6 hPa | 0 mm | - | 0 W/m² | - |
| 1778127980 | 10.56° C | 83% | 1011.5 hPa | 0 mm | - | 0 W/m² | - |
| 1778127675 | 10.56° C | 83% | 1011.4 hPa | 0 mm | - | 0 W/m² | - |
| 1778127373 | 10.56° C | 82% | 1011.3 hPa | 0 mm | - | 0 W/m² | - |
| 1778127070 | 10.56° C | 84% | 1011.3 hPa | 0 mm | - | 0 W/m² | - |
| 1778126767 | 10.56° C | 83% | 1011.5 hPa | 0 mm | - | 0 W/m² | - |
| 1778126463 | 10.56° C | 84% | 1011.5 hPa | 0 mm | - | 0 W/m² | - |
| 1778126159 | 10.56° C | 83% | 1011.5 hPa | 0 mm | - | 0 W/m² | - |
| 1778125855 | 10.56° C | 81% | 1011.7 hPa | 0 mm | - | 0 W/m² | - |
| 1778125552 | 10.56° C | 80% | 1011.2 hPa | 0 mm | - | 0 W/m² | - |
| 1778125250 | 10.56° C | 81% | 1011.4 hPa | 0 mm | - | 0 W/m² | - |
| 1778124948 | 10.56° C | 83% | 1011.1 hPa | 0 mm | - | 0 W/m² | - |
| 1778124644 | 10° C | 87% | 1011.1 hPa | 0 mm | - | 0 W/m² | - |
| 1778124342 | 10° C | 92% | 1011.1 hPa | 0 mm | - | 0 W/m² | - |
| 1778124038 | 10° C | 92% | 1011.2 hPa | 0 mm | - | 0 W/m² | - |
| 1778123734 | 10° C | 92% | 1011 hPa | 0 mm | - | 0 W/m² | - |
| 1778123432 | 10° C | 91% | 1011.1 hPa | 0 mm | - | 0 W/m² | - |
* Rain latest hour (hover to see other rain measurements)
** Current wind speed in m/s (hover to see current wind gust speed)